period_start,C,m1,H,J0,J1,J2,J3,J4,J5,JA,JB,JC,JD,JJ,JK,JN,#
2015-05-27 00:02:55,0.02,0.48,0.00,23.41,27.25,30.04,4.68,26.18,1006.84,2036.98,3274.08,3169.08,3448.19,349.82,343.63,20.30,0000 0000 0000 0000 000000
2015-05-27 00:07:56,0.00,0.48,0.00,23.43,27.25,30.03,4.72,26.29,1006.76,2036.98,3274.03,3169.04,3448.03,350.04,343.68,20.33,0000 0000 0000 0000 000000
2015-05-27 00:12:57,0.00,0.48,0.00,23.46,27.25,30.02,4.70,26.27,1006.63,2036.98,3273.99,3169.01,3448.00,349.96,343.74,20.36,0000 0000 0000 0000 000000
2015-05-27 00:17:58,-0.00,0.48,0.00,23.47,27.25,30.04,4.70,26.25,1006.51,2036.98,3273.98,3169.00,3448.00,349.74,343.49,20.39,0000 0000 0000 0000 000000
2015-05-27 00:23:00,0.00,0.48,0.00,23.49,27.25,30.01,4.67,26.16,1006.58,2036.98,3273.90,3168.98,3447.99,350.14,343.78,20.42,0000 0000 0000 0000 000000
2015-05-27 00:28:01,0.01,0.48,0.00,23.51,27.25,30.01,4.74,26.27,1006.57,2036.95,3273.48,3168.97,3447.96,350.40,344.13,20.45,0000 0000 0000 0000 000000
2015-05-27 00:33:02,0.01,0.48,0.00,23.53,27.27,30.03,4.74,26.21,1006.71,2036.91,3273.05,3168.85,3447.62,350.13,343.87,20.48,0000 0000 0000 0000 000000
2015-05-27 00:38:03,0.03,0.48,0.00,23.56,27.27,30.01,4.72,26.16,1006.45,2036.95,3273.00,3168.70,3447.37,350.12,343.54,20.51,0000 0000 0000 0000 000000
2015-05-27 00:43:04,0.02,0.49,0.00,23.58,27.27,30.02,4.73,26.23,1006.40,2036.95,3272.99,3168.19,3447.06,350.02,343.53,20.54,0000 0000 0000 0000 000000
2015-05-27 00:48:06,-0.03,0.49,0.00,23.60,27.27,30.01,4.68,26.20,1006.38,2036.79,3272.89,3168.02,3447.00,349.88,343.33,20.56,0000 0000 0000 0000 000000
2015-05-27 00:53:07,0.03,0.49,0.00,23.62,27.27,29.99,4.68,26.27,1006.39,2036.82,3272.44,3168.00,3446.99,350.50,343.96,20.59,0000 0000 0000 0000 000000
2015-05-27 00:58:08,-0.03,0.49,0.00,23.64,27.28,29.98,4.73,26.32,1006.37,2036.72,3272.12,3167.99,3446.94,350.06,343.42,20.62,0000 0000 0000 0000 000000
2015-05-27 01:03:10,0.03,0.49,0.00,23.66,27.29,29.97,4.69,26.19,1006.37,2036.72,3272.00,3167.98,3446.77,349.50,342.87,20.65,0000 0000 0000 0000 000000
2015-05-27 01:08:11,-0.02,0.49,0.00,23.68,27.30,29.99,4.77,26.27,1006.37,2036.48,3271.99,3167.88,3446.14,350.31,343.55,20.68,0000 0000 0000 0000 000000
2015-05-27 01:13:12,0.00,0.48,0.00,23.70,27.30,29.96,4.68,26.22,1006.37,2036.30,3271.94,3167.56,3446.02,349.28,342.67,20.71,0000 0000 0000 0000 000000
2015-05-27 01:18:13,0.03,0.49,0.00,23.72,27.30,29.94,4.65,26.22,1006.37,2036.26,3271.54,3167.18,3446.00,349.76,343.11,20.74,0000 0000 0000 0000 000000
2015-05-27 01:23:14,-0.01,0.49,0.00,23.73,27.30,29.95,4.71,26.15,1006.36,2036.15,3271.05,3167.02,3445.99,349.92,343.41,20.77,0000 0000 0000 0000 000000
2015-05-27 01:28:16,0.04,0.49,0.00,23.74,27.32,29.94,4.79,26.22,1006.36,2036.39,3271.00,3167.01,3445.97,350.26,343.71,20.80,0000 0000 0000 0000 000000
2015-05-27 01:33:17,-0.04,0.49,0.00,23.75,27.32,29.96,4.64,26.16,1006.36,2036.16,3271.00,3167.00,3445.89,349.53,342.90,20.83,0000 0000 0000 0000 000000
2015-05-27 01:38:18,0.01,0.49,0.00,23.76,27.32,29.95,4.73,26.13,1006.37,2036.06,3270.92,3166.98,3445.26,350.42,343.76,20.86,0000 0000 0000 0000 000000
2015-05-27 01:43:19,0.03,0.49,0.00,23.80,27.32,29.95,4.64,26.24,1006.36,2036.07,3270.25,3166.85,3445.01,349.51,342.86,20.89,0000 0000 0000 0000 000000
2015-05-27 01:48:21,0.03,0.49,0.00,23.82,27.34,29.93,4.65,26.18,1006.37,2036.03,3270.02,3166.31,3445.00,349.85,343.29,20.92,0000 0000 0000 0000 000000
2015-05-27 01:53:22,0.01,0.49,0.00,23.84,27.35,29.96,4.71,26.18,1006.38,2036.02,3269.99,3166.02,3444.97,350.03,343.16,20.95,0000 0000 0000 0000 000000
2015-05-27 01:58:23,0.02,0.49,0.00,23.86,27.35,29.96,4.75,26.31,1006.37,2036.01,3269.80,3166.00,3444.66,350.12,343.28,20.97,0000 0000 0000 0000 000000
2015-05-27 02:03:24,0.01,0.49,0.00,23.89,27.35,29.95,4.73,26.19,1006.37,2036.00,3269.56,3166.00,3444.13,349.79,342.70,21.00,0000 0000 0000 0000 000000
2015-05-27 02:08:25,0.02,0.49,0.00,23.92,27.37,29.95,4.79,26.23,1006.37,2036.00,3269.04,3165.98,3444.01,350.47,343.56,21.03,0000 0000 0000 0000 000000
2015-05-27 02:13:26,0.00,0.49,0.00,23.94,27.37,29.95,4.72,26.31,1006.38,2036.00,3269.00,3165.86,3444.00,349.86,342.97,21.06,0000 0000 0000 0000 000000
2015-05-27 02:18:28,0.03,0.49,0.00,23.96,27.37,29.96,4.78,26.23,1006.38,2036.00,3268.95,3165.14,3443.95,350.30,343.44,21.09,0000 0000 0000 0000 000000
2015-05-27 02:23:29,0.03,0.49,0.00,23.99,27.39,29.98,4.78,26.21,1006.39,2036.00,3268.46,3165.01,3443.58,350.33,343.37,21.12,0000 0000 0000 0000 000000
2015-05-27 02:28:30,0.01,0.49,0.00,24.01,27.40,29.98,4.70,26.16,1006.39,2036.00,3268.09,3165.01,3443.24,350.61,343.64,21.15,0000 0000 0000 0000 000000
2015-05-27 02:33:32,0.00,0.49,0.00,24.03,27.40,29.98,4.66,26.13,1006.53,2036.00,3268.00,3164.99,3443.01,349.97,343.03,21.18,0000 0000 0000 0000 000000
2015-05-27 02:38:33,0.01,0.49,0.00,24.05,27.42,29.98,4.66,26.12,1006.51,2036.00,3267.93,3164.86,3442.99,349.75,342.77,21.21,0000 0000 0000 0000 000000
2015-05-27 02:43:34,0.05,0.49,0.00,24.07,27.42,29.99,4.62,26.17,1006.47,2035.98,3267.33,3164.23,3442.79,349.95,342.86,21.24,0000 0000 0000 0000 000000
2015-05-27 02:48:36,0.02,0.49,0.00,24.10,27.43,30.00,4.68,26.10,1006.41,2035.98,3267.03,3164.04,3442.28,350.29,343.20,21.27,0000 0000 0000 0000 000000
2015-05-27 02:53:37,0.00,0.50,0.00,24.11,27.45,30.00,4.63,26.14,1006.45,2035.97,3266.99,3164.00,3442.02,349.46,342.42,21.30,0000 0000 0000 0000 000000
2015-05-27 02:58:38,0.01,0.50,0.00,24.13,27.45,30.01,4.74,26.25,1006.43,2035.93,3266.65,3163.98,3441.99,349.90,342.79,21.33,0000 0000 0000 0000 000000
2015-05-27 03:03:39,0.01,0.50,0.00,24.17,27.46,30.00,4.70,26.26,1006.56,2035.95,3266.18,3163.91,3441.94,349.92,342.72,21.36,0000 0000 0000 0000 000000
2015-05-27 03:08:41,0.03,0.50,0.00,24.20,27.47,30.00,4.70,26.27,1006.53,2035.85,3266.02,3163.32,3441.42,350.07,343.04,21.38,0000 0000 0000 0000 000000
2015-05-27 03:13:42,-0.03,0.50,0.00,24.23,27.48,30.03,4.64,26.20,1006.47,2035.61,3265.96,3163.02,3441.03,349.65,342.39,21.41,0000 0000 0000 0000 000000
2015-05-27 03:18:43,0.02,0.50,0.00,24.27,27.50,30.04,4.73,26.20,1006.50,2035.62,3265.74,3163.00,3441.00,350.41,343.06,21.44,0000 0000 0000 0000 000000
2015-05-27 03:23:45,-0.02,0.50,0.00,24.30,27.50,30.03,4.67,26.15,1006.44,2035.37,3265.07,3162.99,3440.97,349.75,342.68,21.47,0000 0000 0000 0000 000000
2015-05-27 03:28:46,-0.02,0.50,0.00,24.34,27.52,30.05,4.71,26.13,1006.41,2035.11,3265.00,3162.79,3440.53,349.66,342.32,21.50,0000 0000 0000 0000 000000
2015-05-27 03:33:48,0.04,0.50,0.00,24.36,27.52,30.06,4.74,26.16,1006.40,2035.12,3264.95,3162.40,3440.12,350.37,342.98,21.53,0000 0000 0000 0000 000000
2015-05-27 03:38:49,0.03,0.50,0.00,24.39,27.54,30.07,4.66,26.18,1006.43,2035.09,3264.39,3162.04,3440.01,349.70,342.42,21.56,0000 0000 0000 0000 000000
2015-05-27 03:43:50,0.00,0.50,0.00,24.41,27.55,30.09,4.72,26.18,1006.70,2035.02,3264.02,3162.00,3440.00,350.40,342.77,21.59,0000 0000 0000 0000 000000
2015-05-27 03:48:51,0.00,0.50,0.00,24.43,27.57,30.12,4.65,26.16,1006.85,2035.03,3264.00,3162.00,3439.97,349.36,342.06,21.62,0000 0000 0000 0000 000000
2015-05-27 03:53:53,0.01,0.50,0.00,24.46,27.57,30.11,4.69,26.21,1006.85,2035.03,3263.95,3161.92,3439.67,349.96,342.68,21.65,0000 0000 0000 0000 000000
2015-05-27 03:58:54,0.06,0.50,0.00,24.47,27.60,30.14,4.70,26.20,1006.85,2035.00,3263.22,3161.28,3439.05,350.11,342.49,21.68,0000 0000 0000 0000 000000
2015-05-27 04:03:55,0.00,0.50,0.00,24.50,27.60,30.14,4.73,26.23,1006.85,2035.00,3263.01,3161.04,3438.99,349.82,342.26,21.71,0000 0000 0000 0000 000000
2015-05-27 04:08:56,0.00,0.50,0.00,24.52,27.62,30.16,4.66,26.13,1006.85,2035.00,3262.99,3161.00,3438.83,349.56,342.16,21.74,0000 0000 0000 0000 000000
2015-05-27 04:13:58,0.02,0.50,0.00,24.53,27.62,30.17,4.61,26.17,1006.83,2035.00,3262.82,3160.96,3438.16,349.75,342.23,21.77,0000 0000 0000 0000 000000
2015-05-27 04:18:59,0.05,0.50,0.00,24.56,27.65,30.20,4.68,26.13,1006.80,2035.00,3262.12,3160.36,3438.00,349.66,342.46,21.79,0000 0000 0000 0000 000000
2015-05-27 04:24:00,0.00,0.50,0.00,24.57,27.66,30.22,4.70,26.13,1006.85,2034.99,3262.00,3160.01,3437.94,350.09,342.41,21.82,0000 0000 0000 0000 000000
2015-05-27 04:29:01,0.03,0.50,0.00,24.58,27.67,30.24,4.71,26.13,1006.85,2034.97,3261.74,3160.00,3437.32,349.84,342.36,21.85,0000 0000 0000 0000 000000
2015-05-27 04:34:03,0.03,0.50,0.00,24.60,27.69,30.25,4.62,26.18,1006.85,2034.97,3261.06,3159.80,3437.00,349.27,341.75,21.88,0000 0000 0000 0000 000000
2015-05-27 04:39:04,0.06,0.51,0.00,24.62,27.70,30.27,4.69,26.14,1006.85,2034.95,3260.61,3159.07,3436.57,349.67,341.90,21.91,0000 0000 0000 0000 000000
2015-05-27 04:44:05,0.01,0.51,0.00,24.64,27.71,30.28,4.70,26.16,1006.86,2034.91,3260.02,3158.99,3436.06,349.93,342.55,21.94,0000 0000 0000 0000 000000
2015-05-27 04:49:06,-0.01,0.51,0.00,24.66,27.72,30.28,4.69,26.14,1006.85,2034.73,3259.97,3158.66,3435.99,349.98,342.50,21.97,0000 0000 0000 0000 000000
2015-05-27 04:54:07,0.02,0.51,0.00,24.68,27.75,30.30,4.78,26.18,1006.85,2034.35,3259.12,3158.02,3435.25,350.32,342.55,22.00,0000 0000 0000 0000 000000
2015-05-27 04:59:08,0.04,0.51,0.00,24.71,27.75,30.31,4.70,26.19,1006.85,2034.18,3258.33,3157.30,3434.70,350.03,342.38,22.03,0000 0000 0000 0000 000000
2015-05-27 05:04:10,0.02,0.51,0.00,24.75,27.77,30.33,4.66,26.13,1006.85,2034.14,3258.00,3157.01,3434.12,350.45,342.70,22.06,0000 0000 0000 0000 000000
2015-05-27 05:09:11,-0.01,0.51,0.00,24.75,27.78,30.35,4.72,26.18,1006.88,2034.07,3257.88,3156.99,3434.00,350.06,342.28,22.09,0000 0000 0000 0000 000000
2015-05-27 05:14:12,0.08,0.51,0.00,24.77,27.80,30.36,4.55,26.18,1006.92,2034.04,3257.12,3156.40,3433.63,349.46,341.80,22.12,0000 0000 0000 0000 000000
2015-05-27 05:19:14,0.02,0.51,0.00,24.79,27.81,30.37,4.64,26.09,1006.91,2034.03,3256.97,3156.01,3433.02,349.91,342.19,22.15,0000 0000 0000 0000 000000
2015-05-27 05:24:15,0.06,0.51,0.00,24.81,27.82,30.39,4.72,26.24,1006.89,2034.00,3256.20,3155.66,3432.70,349.87,342.26,22.18,0000 0000 0000 0000 000000
2015-05-27 05:29:17,0.07,0.52,0.00,24.82,27.85,30.38,4.74,26.18,1006.89,2034.00,3255.37,3154.89,3431.88,350.09,342.29,22.21,0000 0000 0000 0000 000000
2015-05-27 05:34:18,0.08,0.52,0.00,24.84,27.86,30.42,4.66,26.23,1006.91,2034.00,3254.22,3154.07,3431.05,350.02,342.33,22.23,0000 0000 0000 0000 000000
2015-05-27 05:39:20,0.08,0.52,0.00,24.86,27.87,30.42,4.71,26.17,1006.99,2034.00,3253.51,3153.51,3430.39,350.27,342.71,22.26,0000 0000 0000 0000 000000
2015-05-27 05:44:21,0.02,0.52,0.00,24.87,27.89,30.43,4.71,26.19,1006.92,2034.00,3252.94,3153.01,3429.86,350.24,342.52,22.29,0000 0000 0000 0000 000000
2015-05-27 05:49:23,0.08,0.52,0.00,24.90,27.90,30.45,4.71,26.26,1006.94,2034.00,3252.19,3152.51,3429.09,350.12,342.37,22.32,0000 0000 0000 0000 000000
2015-05-27 05:54:24,0.03,0.52,0.00,24.91,27.92,30.47,4.66,26.13,1006.94,2033.99,3251.77,3152.00,3428.68,349.91,341.97,22.35,0000 0000 0000 0000 000000
2015-05-27 05:59:25,0.06,0.53,0.00,24.92,27.93,30.49,4.59,26.19,1007.01,2033.96,3251.05,3151.31,3428.02,349.99,342.07,22.38,0000 0000 0000 0000 000000
2015-05-27 06:04:26,0.03,0.53,0.00,24.94,27.95,30.51,4.72,26.19,1007.00,2033.90,3250.49,3150.97,3427.48,350.09,342.30,22.41,0000 0000 0000 0000 000000
2015-05-27 06:09:27,0.01,0.53,0.00,24.97,27.97,30.51,4.61,26.07,1006.91,2033.62,3249.84,3150.20,3426.97,349.73,341.91,22.44,0000 0000 0000 0000 000000
2015-05-27 06:14:29,0.03,0.53,0.00,24.98,27.98,30.54,4.71,26.12,1007.13,2033.53,3249.09,3150.00,3426.36,349.99,342.19,22.47,0000 0000 0000 0000 000000
2015-05-27 06:19:30,-0.03,0.53,0.00,24.97,28.00,30.54,4.75,26.13,1007.14,2033.16,3248.90,3149.74,3426.00,350.74,342.74,22.50,0000 0000 0000 0000 000000
2015-05-27 06:24:32,0.05,0.53,0.00,24.98,28.02,30.56,4.67,26.17,1007.20,2033.10,3248.11,3149.03,3425.60,349.80,341.95,22.53,0000 0000 0000 0000 000000
2015-05-27 06:29:33,0.04,0.53,0.00,24.99,28.03,30.58,4.71,26.12,1007.23,2033.05,3247.63,3148.71,3425.01,349.92,341.92,22.56,0000 0000 0000 0000 000000
2015-05-27 06:34:34,0.04,0.53,0.00,25.00,28.05,30.60,4.79,26.19,1007.28,2033.02,3246.98,3148.03,3424.27,350.53,342.67,22.59,0000 0000 0000 0000 000000
2015-05-27 06:39:35,0.03,0.53,0.00,25.00,28.07,30.61,4.68,26.11,1007.32,2033.00,3246.23,3147.80,3423.97,349.85,342.18,22.62,0000 0000 0000 0000 000000
2015-05-27 06:44:37,0.06,0.54,0.00,25.02,28.08,30.64,4.59,26.10,1007.34,2033.00,3245.87,3147.05,3423.27,349.58,341.77,22.64,0000 0000 0000 0000 000000
2015-05-27 06:49:38,0.06,0.54,0.00,25.02,28.10,30.65,4.66,26.10,1007.34,2033.00,3245.06,3146.69,3422.77,350.09,342.26,22.67,0000 0000 0000 0000 000000
2015-05-27 06:54:39,0.05,0.54,0.00,25.05,28.11,30.67,4.67,26.16,1007.34,2032.99,3244.35,3146.02,3422.03,350.08,342.23,22.70,0000 0000 0000 0000 000000
2015-05-27 06:59:40,0.07,0.54,0.00,25.06,28.12,30.68,4.64,26.27,1007.34,2032.98,3243.72,3145.46,3421.47,349.82,341.91,22.73,0000 0000 0000 0000 000000
2015-05-27 07:04:41,0.02,0.54,0.00,25.07,28.15,30.69,4.69,26.21,1007.34,2032.97,3243.09,3145.03,3421.03,350.12,342.33,22.76,0000 0000 0000 0000 000000
2015-05-27 07:09:43,0.04,0.54,0.00,25.09,28.16,30.71,4.67,26.18,1007.35,2032.95,3242.68,3144.82,3420.69,349.61,341.72,22.79,0000 0000 0000 0000 000000
2015-05-27 07:14:44,0.04,0.54,0.00,25.12,28.17,30.72,4.68,26.18,1007.35,2032.87,3242.03,3144.07,3420.03,349.86,342.01,22.82,0000 0000 0000 0000 000000
2015-05-27 07:19:45,-0.02,0.54,0.00,25.15,28.18,30.74,4.69,26.10,1007.36,2032.54,3241.59,3143.79,3419.75,349.82,341.74,22.85,0000 0000 0000 0000 000000
2015-05-27 07:24:47,0.03,0.54,0.00,25.17,28.20,30.75,4.73,26.17,1007.36,2032.26,3240.99,3143.03,3419.01,350.21,342.13,22.88,0000 0000 0000 0000 000000
2015-05-27 07:29:48,0.03,0.54,0.00,25.20,28.21,30.78,4.76,26.20,1007.40,2032.09,3240.33,3142.83,3418.35,350.26,342.21,22.91,0000 0000 0000 0000 000000
2015-05-27 07:34:49,0.03,0.55,0.00,25.22,28.23,30.79,4.67,26.09,1007.52,2032.02,3239.91,3142.09,3417.97,349.99,342.01,22.94,0000 0000 0000 0000 000000
2015-05-27 07:39:51,0.04,0.55,0.00,25.24,28.25,30.80,4.67,26.08,1007.76,2032.00,3239.21,3141.98,3417.44,350.06,342.15,22.97,0000 0000 0000 0000 000000
2015-05-27 07:44:52,0.04,0.55,0.00,25.27,28.27,30.82,4.62,26.07,1007.82,2032.00,3239.00,3141.53,3417.02,349.49,341.62,23.00,0000 0000 0000 0000 000000
2015-05-27 07:49:53,0.02,0.55,0.00,25.29,28.28,30.85,4.69,26.10,1007.83,2032.00,3238.72,3141.03,3416.94,349.98,342.11,23.03,0000 0000 0000 0000 000000
2015-05-27 07:54:54,0.03,0.55,0.00,25.32,28.30,30.87,4.64,26.18,1007.83,2032.00,3238.04,3140.98,3416.17,349.96,342.00,23.05,0000 0000 0000 0000 000000
2015-05-27 07:59:55,0.04,0.55,0.00,25.34,28.32,30.87,4.67,26.17,1007.83,2032.00,3237.88,3140.32,3416.00,350.15,342.10,23.08,0000 0000 0000 0000 000000
2015-05-27 08:04:57,0.07,0.55,0.00,25.35,28.35,30.89,4.67,26.17,1007.83,2032.00,3236.82,3139.94,3415.54,349.89,341.86,23.11,0000 0000 0000 0000 000000
2015-05-27 08:09:58,0.05,0.56,0.00,25.37,28.36,30.92,4.64,26.11,1007.84,2031.99,3236.02,3139.26,3414.97,349.82,341.98,23.14,0000 0000 0000 0000 000000
2015-05-27 08:14:59,0.05,0.56,0.00,25.40,28.38,30.95,4.70,26.10,1007.84,2031.96,3235.39,3138.92,3414.13,349.84,341.77,23.17,0000 0000 0000 0000 000000
2015-05-27 08:20:00,0.03,0.56,0.00,25.42,28.41,30.95,4.67,26.07,1007.84,2031.79,3234.78,3138.17,3413.54,350.01,341.67,23.20,0000 0000 0000 0000 000000
2015-05-27 08:25:01,-0.02,0.56,0.00,25.45,28.42,30.98,4.62,26.13,1007.84,2031.38,3234.03,3137.83,3413.01,348.94,340.92,23.23,0000 0000 0000 0000 000000
2015-05-27 08:30:03,0.08,0.56,0.00,25.47,28.45,31.01,4.61,26.20,1008.07,2031.26,3233.20,3137.06,3412.27,349.49,341.30,23.26,0000 0000 0000 0000 000000
2015-05-27 08:35:04,-0.01,0.56,0.00,25.49,28.47,31.04,4.71,26.11,1008.23,2031.21,3232.80,3136.88,3411.99,350.25,342.21,23.29,0000 0000 0000 0000 000000
2015-05-27 08:40:06,0.06,0.56,0.00,25.50,28.49,31.05,4.71,26.11,1008.31,2031.03,3232.05,3136.11,3411.25,350.25,342.24,23.32,0000 0000 0000 0000 000000
2015-05-27 08:45:07,0.01,0.56,0.00,25.52,28.51,31.08,4.67,26.16,1008.31,2031.00,3231.83,3135.99,3410.99,349.94,341.79,23.35,0000 0000 0000 0000 000000
2015-05-27 08:50:08,0.07,0.56,0.00,25.54,28.53,31.09,4.68,26.08,1008.31,2031.00,3231.06,3135.48,3410.62,350.16,341.82,23.38,0000 0000 0000 0000 000000
2015-05-27 08:55:09,0.04,0.57,0.00,25.55,28.55,31.12,4.67,26.20,1008.31,2031.00,3230.59,3135.01,3410.02,349.89,341.42,23.41,0000 0000 0000 0000 000000
2015-05-27 09:00:11,0.02,0.57,0.00,25.57,28.57,31.14,4.66,26.12,1008.31,2030.99,3229.99,3134.95,3409.45,350.10,341.99,23.44,0000 0000 0000 0000 000000
2015-05-27 09:05:12,0.06,0.57,0.00,25.59,28.60,31.16,4.66,26.13,1008.31,2030.95,3229.32,3134.22,3409.00,349.53,341.40,23.46,0000 0000 0000 0000 000000
2015-05-27 09:10:14,0.04,0.57,0.00,25.60,28.62,31.19,4.71,26.14,1008.32,2030.95,3228.65,3133.95,3408.58,350.03,341.88,23.49,0000 0000 0000 0000 000000
2015-05-27 09:15:15,0.03,0.57,0.00,25.61,28.64,31.21,4.69,26.10,1008.33,2030.82,3227.97,3133.24,3408.01,350.21,341.95,23.52,0000 0000 0000 0000 000000
2015-05-27 09:20:16,-0.01,0.57,0.00,25.63,28.66,31.23,4.62,26.07,1008.34,2030.44,3227.10,3132.92,3407.29,349.44,341.29,23.55,0000 0000 0000 0000 000000
2015-05-27 09:25:17,0.04,0.57,0.00,25.65,28.67,31.26,4.62,26.07,1008.35,2030.23,3226.22,3132.14,3406.75,349.65,341.40,23.58,0000 0000 0000 0000 000000
2015-05-27 09:30:18,0.07,0.57,0.00,25.65,28.70,31.28,4.63,26.08,1008.38,2030.11,3225.33,3131.56,3406.03,349.64,341.39,23.61,0000 0000 0000 0000 000000
2015-05-27 09:35:20,0.06,0.58,0.00,25.66,28.72,31.30,4.68,26.02,1008.46,2030.03,3224.16,3130.91,3405.17,350.07,341.92,23.64,0000 0000 0000 0000 000000
2015-05-27 09:40:21,0.07,0.58,0.00,25.67,28.74,31.33,4.66,26.10,1008.61,2030.01,3223.25,3130.11,3404.61,349.46,341.53,23.67,0000 0000 0000 0000 000000
2015-05-27 09:45:22,0.05,0.58,0.00,25.68,28.76,31.34,4.61,26.08,1008.68,2030.00,3222.22,3129.75,3404.00,349.70,341.59,23.70,0000 0000 0000 0000 000000
2015-05-27 09:50:23,0.04,0.58,0.00,25.69,28.77,31.36,4.68,26.05,1008.79,2030.00,3221.98,3129.05,3403.47,350.20,342.21,23.73,0000 0000 0000 0000 000000
2015-05-27 09:55:24,0.03,0.58,0.00,25.70,28.80,31.38,4.64,26.18,1008.79,2029.98,3221.22,3128.95,3403.01,349.76,341.75,23.76,0000 0000 0000 0000 000000
2015-05-27 10:00:26,0.06,0.58,0.00,25.71,28.81,31.40,4.64,26.07,1008.80,2029.99,3220.98,3128.18,3402.59,349.80,341.84,23.79,0000 0000 0000 0000 000000
2015-05-27 10:05:27,0.03,0.58,0.00,25.72,28.82,31.42,4.65,26.02,1008.80,2029.96,3220.50,3128.00,3402.06,349.88,341.76,23.82,0000 0000 0000 0000 000000
2015-05-27 10:10:28,0.08,0.59,0.00,25.72,28.85,31.43,4.69,25.97,1008.80,2029.91,3219.73,3127.40,3401.47,350.39,342.29,23.85,0000 0000 0000 0000 000000
2015-05-27 10:15:30,-0.02,0.59,0.00,25.73,28.86,31.44,4.63,26.05,1008.80,2029.70,3218.87,3126.88,3400.86,349.86,341.73,23.88,0000 0000 0000 0000 000000
2015-05-27 10:20:31,0.05,0.59,0.00,25.75,28.88,31.47,4.72,26.12,1008.80,2029.42,3217.79,3126.06,3400.05,350.24,342.08,23.90,0000 0000 0000 0000 000000
2015-05-27 10:25:33,0.06,0.59,0.00,25.75,28.90,31.49,4.69,26.11,1008.80,2029.27,3217.03,3125.52,3399.42,349.84,341.84,23.93,0000 0000 0000 0000 000000
2015-05-27 10:30:34,0.02,0.59,0.00,25.75,28.91,31.50,4.76,26.07,1008.80,2029.20,3216.30,3125.00,3398.97,350.58,342.16,23.96,0000 0000 0000 0000 000000
2015-05-27 10:35:35,0.07,0.59,0.00,25.75,28.92,31.51,4.74,26.13,1008.80,2029.09,3215.69,3124.40,3398.17,350.09,341.96,23.99,0000 0000 0000 0000 000000
2015-05-27 10:40:36,0.02,0.59,0.00,25.75,28.95,31.53,4.61,26.09,1008.80,2029.05,3215.02,3124.00,3397.89,349.64,341.48,24.02,0000 0000 0000 0000 000000
2015-05-27 10:45:38,0.07,0.59,0.00,25.75,28.95,31.55,4.70,26.11,1008.82,2029.01,3214.51,3123.54,3397.14,350.44,342.28,24.05,0000 0000 0000 0000 000000
2015-05-27 10:50:39,0.01,0.60,0.00,25.77,28.97,31.56,4.65,26.12,1008.81,2029.01,3214.01,3123.02,3396.99,350.25,341.98,24.08,0000 0000 0000 0000 000000
2015-05-27 10:55:40,0.03,0.60,0.00,25.77,28.99,31.58,4.70,26.12,1008.81,2029.00,3213.69,3122.98,3396.59,350.30,341.95,24.11,0000 0000 0000 0000 000000
2015-05-27 11:00:41,0.06,0.60,0.00,25.77,29.00,31.59,4.68,26.14,1008.83,2029.00,3213.03,3122.30,3396.02,349.74,341.52,24.14,0000 0000 0000 0000 000000
2015-05-27 11:05:43,0.00,0.60,0.00,25.77,29.01,31.60,4.62,26.11,1008.94,2028.99,3212.99,3122.01,3395.99,349.73,341.26,24.17,0000 0000 0000 0000 000000
2015-05-27 11:10:44,0.04,0.60,0.00,25.77,29.02,31.61,4.71,26.13,1009.08,2028.99,3212.49,3121.98,3395.55,350.14,341.63,24.20,0000 0000 0000 0000 000000
2015-05-27 11:15:45,0.10,0.60,0.00,25.79,29.03,31.62,4.72,26.15,1009.20,2028.99,3211.37,3121.18,3394.66,350.00,342.03,24.23,0000 0000 0000 0000 000000
2015-05-27 11:20:46,0.05,0.60,0.00,25.78,29.05,31.63,4.65,26.06,1009.28,2028.98,3210.49,3120.70,3394.01,349.95,341.99,24.26,0000 0000 0000 0000 000000
2015-05-27 11:25:48,0.03,0.61,0.00,25.77,29.06,31.64,4.74,26.17,1009.29,2028.96,3210.01,3120.08,3393.91,350.25,342.20,24.29,0000 0000 0000 0000 000000
2015-05-27 11:30:49,0.02,0.61,0.00,25.79,29.07,31.64,4.67,26.12,1009.29,2028.91,3209.70,3119.99,3393.18,350.17,342.03,24.31,0000 0000 0000 0000 000000
2015-05-27 11:35:50,0.01,0.61,0.00,25.79,29.07,31.67,4.70,26.09,1009.29,2028.88,3209.06,3119.86,3393.00,350.18,342.01,24.34,0000 0000 0000 0000 000000
2015-05-27 11:40:51,0.04,0.61,0.00,25.80,29.09,31.67,4.65,26.07,1009.30,2028.81,3208.96,3119.20,3392.95,350.08,342.03,24.37,0000 0000 0000 0000 000000
2015-05-27 11:45:53,0.02,0.61,0.00,25.79,29.10,31.69,4.71,26.15,1009.29,2028.74,3208.27,3119.00,3392.26,349.95,341.93,24.40,0000 0000 0000 0000 000000
2015-05-27 11:50:54,0.05,0.61,0.00,25.79,29.10,31.69,4.62,26.05,1009.29,2028.59,3207.70,3118.56,3391.92,349.61,341.75,24.43,0000 0000 0000 0000 000000
2015-05-27 11:55:55,-0.02,0.61,0.00,25.77,29.11,31.70,4.63,26.03,1009.30,2028.38,3207.02,3118.02,3391.16,350.14,342.20,24.46,0000 0000 0000 0000 000000
2015-05-27 12:00:57,0.01,0.61,0.00,25.77,29.12,31.71,4.66,26.18,1009.32,2028.13,3206.43,3117.82,3391.00,349.76,341.85,24.49,0000 0000 0000 0000 000000
2015-05-27 12:05:58,0.06,0.61,0.00,25.75,29.12,31.72,4.69,26.13,1009.34,2028.13,3206.02,3117.11,3390.83,350.11,342.11,24.52,0000 0000 0000 0000 000000
2015-05-27 12:10:59,0.01,0.61,0.00,25.73,29.13,31.72,4.70,26.00,1009.34,2028.10,3205.90,3117.00,3390.16,350.08,342.13,24.55,0000 0000 0000 0000 000000
2015-05-27 12:16:00,0.04,0.61,0.00,25.70,29.14,31.73,4.68,26.05,1009.31,2028.09,3205.15,3116.68,3389.99,350.04,342.06,24.58,0000 0000 0000 0000 000000
2015-05-27 12:21:02,0.05,0.61,0.00,25.66,29.15,31.73,4.64,26.06,1009.30,2028.06,3204.80,3116.04,3389.36,349.57,341.75,24.61,0000 0000 0000 0000 000000
2015-05-27 12:26:03,0.03,0.62,0.00,25.64,29.15,31.74,4.64,26.07,1009.31,2028.06,3204.05,3115.91,3389.00,349.63,341.73,24.64,0000 0000 0000 0000 000000
2015-05-27 12:31:04,0.08,0.62,0.00,25.61,29.15,31.75,4.65,26.07,1009.31,2028.08,3203.51,3115.16,3388.41,349.58,341.85,24.67,0000 0000 0000 0000 000000
2015-05-27 12:36:05,0.01,0.62,0.00,25.58,29.15,31.76,4.71,26.02,1009.33,2028.03,3202.92,3114.95,3388.00,350.00,342.15,24.70,0000 0000 0000 0000 000000
2015-05-27 12:41:07,0.08,0.62,0.00,25.55,29.15,31.76,4.63,26.03,1009.31,2028.03,3202.10,3114.16,3387.37,349.82,342.08,24.72,0000 0000 0000 0000 000000
2015-05-27 12:46:08,0.01,0.62,0.00,25.51,29.15,31.75,4.62,26.07,1009.37,2028.03,3201.80,3114.00,3387.01,349.47,341.84,24.75,0000 0000 0000 0000 000000
2015-05-27 12:51:09,0.08,0.62,0.00,25.48,29.15,31.78,4.69,26.07,1009.46,2028.02,3201.04,3113.50,3386.44,349.89,342.36,24.78,0000 0000 0000 0000 000000
2015-05-27 12:56:10,0.03,0.62,0.00,25.44,29.13,31.77,4.68,26.20,1009.61,2028.03,3200.56,3113.02,3386.00,350.22,342.70,24.81,0000 0000 0000 0000 000000
2015-05-27 13:01:12,0.05,0.63,0.00,25.41,29.12,31.76,4.68,26.08,1009.71,2028.03,3199.99,3112.70,3385.52,349.67,342.11,24.84,0000 0000 0000 0000 000000